Location: Dappach
(48.9767°N, 9.6998°E)
Time: 01:23:34
(UTC+00:00)

Cosmos 1892 - Pass Details

Date: 23 May 2024
Orbit: 455 x 468 km, 82.5° (Epoch: 19 June)

Event Time Altitude Azimuth Distance (km) Brightness Sun altitude
Exits shadow 02:42:04 - 190° (S) 2,093 5.3 -6.9°
Reaches altitude 10° 02:43:14 10° 191° (S) 1,601 4.7 -6.8°
Maximum altitude 02:46:43 82° 279° (W) 469 2.4 -6.3°
Drops below altitude 10° 02:50:14 10° 8° (N) 1,610 6.0 -5.9°
Sets 02:52:19 0° 9° (N) 2,488 7.1 -5.7°
